Quillayute, WA
on Monday, November 12, 2012

Monday
Previous Day Next Day
Daily Summary
 ActualAverageRecord
Temperature
Mean Temperature °F 45°F  
Max Temperature 54°F 51°F 64°F (1976)
Min Temperature 47°F 39°F 19°F (1985)
Degree Days
Heating Degree Days 14 20  
Month to date heating degree days 230  
Since 1 July heating degree days 1320  
Cooling Degree Days 0 0  
Month to date cooling degree days 0  
Year to date cooling degree days 19  
Moisture
Dew Point 50°F   
Average Humidity 96    
Maximum Humidity 100    
Minimum Humidity 38    
Precipitation
Precipitation 0.05 in 0.52 in 4.05 in (1998)
Month to date precipitation 5.98  
Year to date precipitation 77.01  
Wind
Wind Speed 3 mph   
Max Wind Speed 12 mph   
Max Gust Speed 16 mph   
Visibility 4 miles   
Events Fog , Rain   

Key: T is trace of precipitation, MM is missing value
Source: NWS Daily Summary
Time(PST)TemperatureDew PointHumidity Pressure Visibility Wind DirectionWind SpeedGust SpeedPrecipitationEvents Conditions
12:20 AM 48.2°F - N/A% 29.97 in 6.0 miles SSE 8.1 mph - N/A   Haze
12:46 AM 48.2°F - N/A% 29.97 in 3.0 miles SSE 4.6 mph - N/A   Overcast
12:53 AM 48.9°F - N/A% 29.98 in 4.0 miles Variable 5.8 mph - N/A   Haze
1:27 AM 48.2°F - N/A% 29.98 in 1.8 miles South 4.6 mph - N/A   Overcast
1:36 AM 48.2°F - N/A% 29.99 in 1.0 miles Variable 3.5 mph - N/A   Overcast
1:43 AM 48.2°F - N/A% 29.99 in 1.0 miles South 4.6 mph - 0.01 in Rain Light Rain
1:53 AM 48.9°F - N/A% 29.99 in 1.2 miles Variable 3.5 mph - 0.01 in   Overcast
2:09 AM 48.2°F - N/A% 30.00 in 1.5 miles SSW 4.6 mph - N/A   Overcast
2:27 AM 48.2°F - N/A% 30.00 in 1.2 miles South 3.5 mph - N/A   Overcast
2:35 AM 50.0°F - N/A% 30.00 in 2.0 miles WSW 4.6 mph - N/A   Overcast
2:44 AM 50.0°F - N/A% 30.01 in 5.0 miles West 6.9 mph - N/A   Haze
2:53 AM 50.0°F - N/A% 30.01 in 5.0 miles West 4.6 mph - N/A   Haze
3:00 AM 50.0°F - N/A% 30.01 in 5.0 miles West 3.5 mph - N/A   Haze
3:53 AM 50.0°F - N/A% 30.03 in 4.0 miles Calm Calm - N/A   Haze
4:29 AM 50.0°F - N/A% 30.03 in 1.8 miles SSW 4.6 mph - N/A Rain Light Rain
4:50 AM 48.2°F - N/A% 30.04 in 3.0 miles West 3.5 mph - 0.01 in Rain Light Rain
4:53 AM 48.9°F - N/A% 30.04 in 5.0 miles WSW 3.5 mph - 0.01 in   Haze
5:03 AM 48.2°F - N/A% 30.04 in 3.0 miles WSW 4.6 mph - 0.01 in   Overcast
5:07 AM 48.2°F - N/A% 30.04 in 2.5 miles WSW 4.6 mph - 0.01 in   Overcast
5:16 AM 48.2°F - N/A% 30.05 in 1.5 miles West 4.6 mph - 0.01 in Rain Light Rain
5:25 AM 48.2°F - N/A% 30.05 in 2.5 miles WSW 3.5 mph - 0.01 in Rain Light Rain
5:40 AM 48.2°F - N/A% 30.05 in 4.0 miles Calm Calm - 0.01 in   Haze
5:50 AM 48.2°F - N/A% 30.05 in 1.8 miles Calm Calm - 0.01 in   Mostly Cloudy
5:53 AM 48.0°F - N/A% 30.06 in 1.5 miles Calm Calm - 0.01 in   Mostly Cloudy
6:00 AM 48.2°F - N/A% 30.05 in 0.8 miles Calm Calm - N/A   Mostly Cloudy
6:10 AM 48.2°F - N/A% 30.06 in 0.2 miles Calm Calm - N/A Fog Fog
6:33 AM 46.4°F - N/A% 30.06 in 0.2 miles Calm Calm - N/A Fog Fog
6:39 AM 46.4°F - N/A% 30.06 in 1.0 miles Calm Calm - N/A   Overcast
6:42 AM 46.4°F - N/A% 30.06 in 2.0 miles Calm Calm - N/A   Overcast
6:50 AM 48.2°F - N/A% 30.07 in 4.0 miles ESE 3.5 mph - N/A   Haze
6:53 AM 48.0°F - N/A% 30.07 in 4.0 miles Calm Calm - N/A   Haze
7:07 AM 46.4°F - N/A% 30.07 in 5.0 miles Calm Calm - N/A   Haze
7:19 AM 46.4°F - N/A% 30.08 in 1.8 miles SSE 3.5 mph - N/A   Overcast
7:25 AM 46.4°F - N/A% 30.08 in 2.0 miles SE 3.5 mph - N/A   Overcast
7:34 AM 46.4°F - N/A% 30.08 in 4.0 miles Calm Calm - N/A   Haze
7:53 AM 48.0°F - N/A% 30.09 in 2.5 miles Calm Calm - N/A   Overcast
8:02 AM 48.2°F - N/A% 30.09 in 2.5 miles Calm Calm - N/A   Overcast
8:19 AM 48.2°F - N/A% 30.09 in 1.5 miles Calm Calm - N/A   Overcast
8:46 AM 48.2°F - N/A% 30.09 in 2.0 miles SE 4.6 mph - N/A   Overcast
8:53 AM 50.0°F - N/A% 30.09 in 2.5 miles Calm Calm - N/A   Overcast
9:30 AM 51.8°F - N/A% 30.10 in 3.0 miles Variable 3.5 mph - N/A   Overcast
9:50 AM 50.0°F - N/A% 30.10 in 3.0 miles South 4.6 mph - N/A   Overcast
9:53 AM 50.0°F - N/A% 30.11 in 3.0 miles South 4.6 mph - N/A   Overcast
10:53 AM 51.1°F - N/A% 30.12 in 4.0 miles South 8.1 mph - 0.00 in   Haze
11:18 AM 51.8°F - N/A% 30.12 in 5.0 miles South 5.8 mph - 0.00 in   Haze
11:23 AM 53.6°F - N/A% 30.12 in 5.0 miles South 5.8 mph - 0.00 in   Haze
11:31 AM 51.8°F - N/A% 30.12 in 4.0 miles South 5.8 mph - 0.00 in   Haze
11:53 AM 52.0°F 52.0°F 100% 30.12 in 5.0 miles South 5.8 mph - 0.00 in   Overcast
12:09 PM 53.6°F 51.8°F 94% 30.12 in 5.0 miles Variable 6.9 mph - N/A   Overcast
12:29 PM 51.8°F 51.8°F 100% 30.12 in 5.0 miles South 8.1 mph - N/A   Overcast
12:39 PM 51.8°F 50.0°F 94% 30.12 in 6.0 miles SSW 8.1 mph - N/A   Overcast
12:50 PM 53.6°F 50.0°F 88% 30.12 in 5.0 miles South 8.1 mph - N/A   Overcast
12:53 PM 52.0°F 50.0°F 93% 30.12 in 6.0 miles South 10.4 mph 16.1 mph N/A   Overcast
1:26 PM 53.6°F 51.8°F 94% 30.12 in 5.0 miles Variable 3.5 mph - N/A   Mostly Cloudy
1:45 PM 53.6°F 51.8°F 94% 30.12 in 6.0 miles South 6.9 mph - N/A   Mostly Cloudy
1:53 PM 53.1°F 51.1°F 93% 30.12 in 6.0 miles SSW 4.6 mph - N/A   Overcast
2:04 PM 53.6°F 50.0°F 88% 30.12 in 6.0 miles South 5.8 mph - N/A   Overcast
2:12 PM 53.6°F 51.8°F 94% 30.12 in 6.0 miles South 8.1 mph - N/A   Overcast
2:53 PM 52.0°F 51.1°F 97% 30.13 in 6.0 miles South 5.8 mph - N/A   Mostly Cloudy
3:04 PM 51.8°F 51.8°F 100% 30.13 in 6.0 miles Variable 3.5 mph - N/A   Overcast
3:31 PM 51.8°F 50.0°F 94% 30.13 in 5.0 miles South 4.6 mph - N/A   Overcast
3:53 PM 52.0°F 51.1°F 97% 30.13 in 5.0 miles South 4.6 mph - N/A   Overcast
4:01 PM 51.8°F 51.8°F 100% 30.13 in 5.0 miles South 4.6 mph - N/A   Overcast
4:18 PM 51.8°F 50.0°F 94% 30.13 in 6.0 miles Calm Calm - N/A   Mostly Cloudy
4:41 PM 51.8°F 50.0°F 94% 30.13 in 2.5 miles South 5.8 mph - 0.00 in Rain Light Rain
4:47 PM 51.8°F 50.0°F 94% 30.13 in 5.0 miles SSW 4.6 mph - 0.00 in Rain Light Rain
4:48 PM 51.1°F 50.0°F 96% 30.13 in 5.0 miles SSW 3.5 mph - 0.00 in Rain Light Rain
4:56 PM 50.0°F 50.0°F 100% 30.13 in 6.0 miles South 3.5 mph - N/A   Mostly Cloudy
5:05 PM 50.0°F 50.0°F 100% 30.13 in 6.0 miles South 3.5 mph - N/A   Overcast
5:20 PM 50.0°F 50.0°F 100% 30.13 in 6.0 miles Calm Calm - N/A   Overcast
5:33 PM 50.0°F 50.0°F 100% 30.13 in 7.0 miles Calm Calm - N/A   Overcast
5:53 PM 50.0°F 50.0°F 100% 30.14 in 6.0 miles Calm Calm - N/A   Overcast
6:26 PM 51.8°F 51.8°F 100% 30.14 in 2.5 miles South 4.6 mph - 0.01 in Rain Light Rain
6:41 PM 51.8°F 51.8°F 100% 30.14 in 2.5 miles South 5.8 mph - 0.02 in Rain Light Rain
6:46 PM 51.8°F 51.8°F 100% 30.14 in 4.0 miles South 3.5 mph - 0.02 in Rain Light Rain
6:53 PM 51.1°F 51.1°F 100% 30.14 in 4.0 miles South 4.6 mph - 0.02 in Rain Light Rain
7:53 PM 50.0°F 50.0°F 100% 30.14 in 5.0 miles Calm Calm - 0.00 in   Overcast
8:36 PM 50.0°F 50.0°F 100% 30.15 in 6.0 miles Calm Calm - N/A   Overcast
8:53 PM 51.1°F 51.1°F 100% 30.16 in 6.0 miles Calm Calm - N/A   Overcast
9:04 PM 51.8°F 51.8°F 100% 30.16 in 6.0 miles Calm Calm - N/A   Overcast
9:12 PM 51.8°F 51.8°F 100% 30.16 in 6.0 miles South 3.5 mph - N/A   Overcast
9:27 PM 51.8°F 51.8°F 100% 30.16 in 7.0 miles South 5.8 mph - N/A   Overcast
9:43 PM 51.8°F 50.0°F 94% 30.16 in 6.0 miles Calm Calm - 0.00 in Rain Light Rain
9:50 PM 51.8°F 51.8°F 100% 30.16 in 7.0 miles SW 3.5 mph - 0.00 in   Overcast
9:53 PM 51.1°F 51.1°F 100% 30.17 in 7.0 miles SW 3.5 mph - 0.00 in   Overcast
10:53 PM 50.0°F 50.0°F 100% 30.17 in 7.0 miles Calm Calm - 0.00 in   Overcast
11:27 PM 50.0°F 50.0°F 100% 30.17 in 6.0 miles Calm Calm - N/A   Overcast
11:43 PM 50.0°F 50.0°F 100% 30.17 in 6.0 miles Calm Calm - N/A   Overcast
11:53 PM 48.9°F 48.9°F 100% 30.17 in 6.0 miles Calm Calm - N/A   Overcast
Moon Phase
Nov. 12 Nov. 13 Nov. 20 Nov. 28 Dec. 06
Sunrise:07:20 AM (PST) Moon Rise:05:49 AM (PST)11/12
Sunset:04:43 PM (PST) Moon Set:03:54 PM (PST)11/12

Copyright © 2014 The Weather Underground, Inc.